Weather reports worldwide

Advertisment
Le Luc, France (7675): temperature & dewpoint: 15.05.2019 13:00:00 - 21.05.2019 13:00:00 (CEST)Le Luc, France (7675): temperature 5cm: 15.05.2019 13:00:00 - 21.05.2019 13:00:00 (CEST)Le Luc, France (7675): wind speed & gusts: 15.05.2019 13:00:00 - 21.05.2019 13:00:00 (CEST)Le Luc, France (7675): wind direction: 15.05.2019 13:00:00 - 21.05.2019 13:00:00 (CEST)Le Luc, France (7675): reduced air pressure: 15.05.2019 13:00:00 - 21.05.2019 13:00:00 (CEST)Le Luc, France (7675): visibility: 15.05.2019 13:00:00 - 21.05.2019 13:00:00 (CEST)Le Luc, France (7675): sunshine duration: 15.05.2019 13:00:00 - 21.05.2019 13:00:00 (CEST)Le Luc, France (7675): precipitation: 15.05.2019 13:00:00 - 21.05.2019 13:00:00 (CEST)
Date & Time tt [°C] td [°C] tt 5cm [°C] ff [km/h] ff [kn] fx [km/h] fx [kn] dd ppp [hPa] vv [km] sd [min] rr [mm]
21.05.2019 13:00:00 22,5 10,9 28,3 9 5 22 12 SSE 1009,6 44 37 0,0
21.05.2019 12:00:00 21,8 11,2 28,4 4 2 19 11 NNE 1009,8 42 50 0,0
21.05.2019 11:00:00 19,3 11,1 27,5 11 6 21 11 NE 1010,1 34 60 0,0
21.05.2019 10:00:00 18,6 10,9 24,1 6 3 15 8 ESE 1010,2 35 60 0,0
21.05.2019 09:00:00 16,5 11,0 15,7 2 1 6 4 SSW 1010,0 42 60 0,0
21.05.2019 08:00:00 11,4 10,0 9,2 2 1 4 2 WSW 1009,9 40 60 0,0
21.05.2019 07:00:00 9,0 8,2 4,6 3 1 8 4 ENE 1009,6 20 32 0,0
21.05.2019 06:00:00 8,2 7,9 4,4 0 0 4 2 N 1009,2 14 0 0,0
21.05.2019 05:00:00 8,7 8,2 5,6 3 2 6 3 E 1008,9 20 0 0,0
21.05.2019 04:00:00 8,7 8,4 6,5 3 2 6 3 N 1009,1 0,3 0 0,0
21.05.2019 03:00:00 9,8 8,9 6,3 0 0 6 4 N 1009,3 20 0 0,0
21.05.2019 02:00:00 11,4 10,8 7,4 0 0 17 9 N 1009,2 11 0 0,0
21.05.2019 01:00:00 12,2 11,7 9,2 4 2 13 7 ESE 1009,2 25 0 0,0
21.05.2019 00:00:00 12,7 11,3 9,0 5 3 11 6 E 1009,0 50 0 0,0
20.05.2019 23:00:00 13,7 11,7 10,3 5 3 14 8 SSW 1008,6 50 0 0,0
20.05.2019 22:00:00 14,7 11,5 11,5 2 1 6 3 N 1008,1 50 0 0,0
20.05.2019 21:00:00 16,7 12,2 15,3 3 2 9 5 WNW 1007,6 50 0 0,0
20.05.2019 20:00:00 17,1 12,4 17,4 6 4 13 7 NNE 1007,6 50 38 0,0
20.05.2019 19:00:00 17,1 12,2 17,7 8 5 17 9 NNE 1007,3 49 0 0,0
20.05.2019 18:00:00 17,4 12,3 18,6 9 5 27 14 NE 1006,8 45 0 0,0
20.05.2019 17:00:00 18,1 11,9 19,2 16 9 45 25 NNE 1006,5 48 0 0,0
20.05.2019 16:00:00 22,3 9,8 22,4 29 15 42 23 WNW 1005,7 41 2 0,0
20.05.2019 15:00:00 21,4 9,9 22,9 26 14 41 22 W 1005,8 48 6 0,0
20.05.2019 14:00:00 21,6 10,7 22,0 21 12 40 22 W 1005,8 44 4 0,0
20.05.2019 13:00:00 20,2 10,6 21,4 19 10 28 15 W 1005,8 50 0 0,0
20.05.2019 12:00:00 19,1 11,1 21,4 15 8 31 17 WNW 1005,7 35 18 0,0
20.05.2019 11:00:00 18,6 11,2 19,0 16 8 29 16 W 1005,9 38 40 0,0
20.05.2019 10:00:00 17,1 11,1 17,5 18 10 26 14 WNW 1005,9 44 9 0,0
20.05.2019 09:00:00 15,5 11,1 14,9 13 7 27 14 W 1006,0 39 52 0,0
20.05.2019 08:00:00 11,8 10,4 9,0 0 0 4 2 N 1005,9 43 8 0,0
20.05.2019 07:00:00 9,9 9,1 7,1 2 1 7 4 W 1005,6 42 2 0,2
20.05.2019 06:00:00 10,8 9,9 8,6 5 3 10 5 SSW 1005,2 50 0 0,0
20.05.2019 05:00:00 10,4 9,5 7,0 7 4 9 5 SW 1005,2 50 0 0,0
20.05.2019 04:00:00 10,1 9,3 6,8 2 1 8 4 WSW 1005,3 50 0 0,0
20.05.2019 03:00:00 11,6 10,2 9,9 6 3 10 5 SW 1005,6 50 0 0,0
20.05.2019 02:00:00 12,0 10,2 10,0 6 4 11 6 SW 1005,9 50 0 0,0
20.05.2019 01:00:00 12,4 10,3 10,2 4 2 8 4 SW 1006,2 50 0 0,0
20.05.2019 00:00:00 12,7 10,6 11,3 5 3 11 6 SSW 1006,4 50 0 0,0
19.05.2019 23:00:00 13,4 10,9 12,4 5 3 13 7 WSW 1006,3 50 0 0,0
19.05.2019 22:00:00 13,6 10,9 12,6 10 5 22 12 WSW 1006,1 50 0 0,0
19.05.2019 21:00:00 14,4 11,2 13,4 15 8 23 13 W 1005,6 47 0 0,0
19.05.2019 20:00:00 15,1 10,9 14,7 13 7 24 13 W 1005,4 50 0 0,0
19.05.2019 19:00:00 15,6 11,4 14,7 11 6 27 14 WNW 1004,8 50 0 0,0
19.05.2019 18:00:00 16,4 10,5 16,9 5 3 19 10 WSW 1004,7 50 0 0,0
19.05.2019 17:00:00 16,3 11,4 17,5 5 3 15 8 ESE 1004,5 50 0 0,0
19.05.2019 16:00:00 16,2 11,1 17,4 8 4 20 11 E 1004,6 49 0 0,0
19.05.2019 15:00:00 16,9 11,8 20,6 15 8 24 13 NNE 1004,4 49 0 0,0
19.05.2019 14:00:00 18,5 9,8 22,3 13 7 24 13 WNW 1003,9 47 22 0,0
19.05.2019 13:00:00 18,7 10,3 21,3 16 9 23 12 NW 1003,8 44 22 0,0
19.05.2019 12:00:00 17,8 9,9 19,1 15 8 23 12 W 1004,2 39 20 0,0
19.05.2019 11:00:00 17,0 11,0 17,5 11 6 18 10 W 1004,3 45 30 0,0
19.05.2019 10:00:00 15,0 12,1 16,2 11 6 16 9 WSW 1004,6 49 0 0,0
19.05.2019 09:00:00 14,0 12,6 14,0 0 0 7 4 N 1004,7 35 0 0,0
19.05.2019 08:00:00 12,8 11,2 11,4 6 3 10 5 W 1004,6 43 7 0,0
19.05.2019 07:00:00 11,6 10,8 10,4 5 3 11 6 SW 1004,9 20 0 0,0
19.05.2019 06:00:00 11,5 10,7 10,4 8 5 12 6 SW 1004,8 37 0 0,0
19.05.2019 05:00:00 11,5 11,0 10,4 5 3 8 5 SW 1004,9 20 0 0,0
19.05.2019 04:00:00 11,9 11,3 10,4 0 0 5 3 N 1005,2 20 0 0,0
19.05.2019 03:00:00 12,1 11,5 11,4 3 2 5 3 SW 1005,7 32 0 0,4
19.05.2019 02:00:00 12,3 11,7 11,5 0 0 8 4 N 1006,3 17 0 0,6
19.05.2019 01:00:00 12,4 11,8 11,7 4 2 7 4 SSW 1006,7 19 0 0,4
19.05.2019 00:00:00 12,8 11,7 12,0 2 1 8 4 W 1007,0 20 0 0,2
18.05.2019 23:00:00 13,2 12,1 11,9 3 1 9 5 S 1007,2 44 0 0,4
18.05.2019 22:00:00 13,4 12,0 12,4 8 4 15 8 NW 1007,3 20 0 0,4
18.05.2019 21:00:00 14,1 12,3 12,9 8 4 12 6 NNW 1006,8 38 0 0,2
18.05.2019 20:00:00 15,2 12,9 14,3 4 2 9 5 NW 1006,3 34 0 0,2
18.05.2019 19:00:00 15,9 11,1 15,6 3 1 9 5 NNW 1005,7 50 0 0,0
18.05.2019 18:00:00 16,7 10,3 16,5 4 2 12 6 NNW 1005,6 50 0 0,0
18.05.2019 17:00:00 17,6 9,0 17,6 5 3 16 8 SSW 1005,1 48 0 0,0
18.05.2019 16:00:00 18,4 7,2 19,6 6 3 21 11 N 1004,8 50 0 0,0
18.05.2019 15:00:00 19,0 7,1 20,3 14 7 22 12 NNW 1004,6 49 0 0,0
18.05.2019 14:00:00 19,0 5,8 20,3 12 7 26 14 W 1004,6 50 0 0,0
18.05.2019 13:00:00 18,8 5,9 20,3 17 9 34 19 WNW 1004,8 43 0 0,0
18.05.2019 12:00:00 18,3 6,8 20,7 21 11 31 17 WNW 1005,0 48 1 0,0
18.05.2019 11:00:00 16,7 8,4 17,1 9 5 20 11 W 1005,0 47 0 0,0
18.05.2019 10:00:00 14,9 9,3 16,0 13 7 19 10 WSW 1005,0 49 0 0,0
18.05.2019 09:00:00 13,9 9,9 11,7 10 6 16 9 WSW 1004,9 46 0 0,0
18.05.2019 08:00:00 12,1 9,7 10,7 6 3 13 7 SSW 1004,8 49 0 0,0
18.05.2019 07:00:00 11,6 9,3 10,4 6 4 14 8 SSW 1004,7 50 0 0,0
18.05.2019 06:00:00 11,5 9,7 10,4 6 3 10 5 SSW 1004,7 20 0 0,0
18.05.2019 05:00:00 11,9 10,5 10,7 7 4 12 7 W 1004,6 47 0 0,0
18.05.2019 04:00:00 11,8 10,4 10,6 7 4 11 6 SSE 1004,8 43 0 0,0
18.05.2019 03:00:00 12,4 9,4 10,8 4 2 12 6 ENE 1005,0 38 0 0,4
18.05.2019 02:00:00 12,2 9,4 11,4 2 1 9 5 SSE 1004,9 49 0 0,0
18.05.2019 01:00:00 12,8 9,1 11,3 3 2 10 5 W 1005,2 50 0 0,0
18.05.2019 00:00:00 12,3 9,3 11,1 5 3 11 6 S 1005,6 50 0 0,0
17.05.2019 23:00:00 12,8 9,2 11,1 2 1 8 4 ESE 1005,7 50 0 0,0
17.05.2019 22:00:00 13,2 8,7 11,7 3 1 13 7 NNW 1005,3 50 0 0,0
17.05.2019 21:00:00 13,4 7,8 11,7 2 1 11 6 NNW 1005,1 50 0 0,0
17.05.2019 20:00:00 13,7 8,1 12,7 6 4 35 19 E 1005,0 49 0 0,0
17.05.2019 19:00:00 14,6 9,0 13,3 10 5 21 12 SE 1005,1 36 0 0,0
17.05.2019 18:00:00 15,3 6,8 13,5 14 8 37 20 E 1005,3 46 0 0,0
17.05.2019 17:00:00 15,6 7,9 15,7 18 10 35 19 ENE 1005,2 50 0 0,0
17.05.2019 16:00:00 16,5 7,9 17,5 19 11 41 22 E 1005,8 49 0 0,0
17.05.2019 15:00:00 17,5 6,7 19,1 19 11 34 18 E 1006,1 40 9 0,0
17.05.2019 14:00:00 16,6 9,0 15,5 23 12 37 20 E 1006,7 41 3 0,0
17.05.2019 13:00:00 15,8 9,0 16,0 18 10 44 24 E 1007,2 40 0 0,0
17.05.2019 12:00:00 17,1 9,5 17,9 25 14 43 23 E 1006,9 20 0 0,0
17.05.2019 11:00:00 16,3 9,5 17,1 25 13 42 23 E 1006,7 40 0 0,0
17.05.2019 10:00:00 15,6 10,4 15,2 18 10 29 16 E 1007,1 40 0 0,0
17.05.2019 09:00:00 13,1 10,8 10,6 5 3 11 6 ENE 1007,1 34 0 0,0
17.05.2019 08:00:00 9,9 8,3 8,6 4 2 9 5 SW 1007,7 37 0 0,0
17.05.2019 07:00:00 8,7 7,3 6,6 4 2 6 4 SE 1007,9 40 0 0,0
17.05.2019 06:00:00 7,9 6,4 6,3 0 0 3 2 N 1008,6 46 0 0,0
17.05.2019 05:00:00 8,8 7,1 6,4 0 0 3 2 N 1008,6 50 0 0,0
17.05.2019 04:00:00 9,1 7,0 7,1 3 2 5 3 W 1009,1 50 0 0,0
17.05.2019 03:00:00 9,4 6,8 7,5 3 2 5 3 ESE 1009,7 50 0 0,0
17.05.2019 02:00:00 10,1 7,5 7,7 0 0 6 4 N 1009,9 50 0 0,0
17.05.2019 01:00:00 10,9 6,8 7,8 0 0 4 2 N 1010,4 50 0 0,0
17.05.2019 00:00:00 12,8 8,1 8,7 0 0 14 7 N 1010,5 50 0 0,0
16.05.2019 23:00:00 13,7 7,7 11,3 6 3 13 7 NW 1010,8 50 0 0,0
16.05.2019 22:00:00 15,4 6,4 13,3 4 2 19 11 WNW 1010,4 49 0 0,0
16.05.2019 21:00:00 16,6 5,5 14,9 5 3 18 10 SSW 1009,6 50 0 0,0
16.05.2019 20:00:00 18,6 6,1 17,1 4 2 24 13 SSW 1009,6 50 40 0,0
16.05.2019 19:00:00 19,5 7,2 19,6 9 5 19 10 S 1009,1 46 15 0,0
16.05.2019 18:00:00 20,6 6,5 22,4 5 3 20 11 S 1008,9 37 21 0,0
16.05.2019 17:00:00 20,9 7,1 24,3 9 5 29 16 SSW 1009,1 42 37 0,0
16.05.2019 16:00:00 22,0 7,8 29,5 14 8 30 16 WSW 1009,2 39 60 0,0
16.05.2019 15:00:00 21,7 7,1 23,7 18 10 34 19 WSW 1009,7 46 45 0,0
16.05.2019 14:00:00 20,8 7,4 22,8 13 7 25 13 E 1010,1 37 18 0,0
16.05.2019 13:00:00 20,9 7,5 29,9 9 5 22 12 ESE 1010,6 37 60 0,0
16.05.2019 12:00:00 20,5 8,2 29,8 5 3 19 10 NNE 1011,0 34 60 0,0
16.05.2019 11:00:00 18,4 8,4 26,3 4 2 8 4 ENE 1011,6 34 60 0,0
16.05.2019 10:00:00 15,6 7,9 22,4 3 1 6 3 NNE 1012,2 29 60 0,0
16.05.2019 09:00:00 12,6 7,9 14,5 0 0 9 5 N 1012,6 32 60 0,0
16.05.2019 08:00:00 8,9 7,0 5,7 0 0 4 2 N 1013,2 38 60 0,0
16.05.2019 07:00:00 5,7 4,8 1,9 0 0 3 2 N 1013,3 31 28 0,0
16.05.2019 06:00:00 4,0 3,1 1,8 0 0 4 2 N 1013,2 20 0 0,0
16.05.2019 05:00:00 5,1 4,4 2,5 0 0 4 2 N 1013,3 35 0 0,0
16.05.2019 04:00:00 5,6 4,1 3,8 3 1 11 6 E 1013,4 42 0 0,0
16.05.2019 03:00:00 6,3 5,6 3,1 3 2 10 5 SSW 1013,5 50 0 0,0
16.05.2019 02:00:00 6,9 5,5 3,6 0 0 4 2 N 1013,8 50 0 0,0
16.05.2019 01:00:00 7,4 5,4 5,5 3 2 8 5 ENE 1014,6 50 0 0,0
16.05.2019 00:00:00 9,1 6,5 5,8 0 0 5 3 N 1014,9 50 0 0,0
15.05.2019 23:00:00 10,8 6,7 8,2 4 2 9 5 SW 1014,7 50 0 0,0
15.05.2019 22:00:00 12,0 7,1 10,0 7 4 11 6 W 1014,4 50 0 0,0
15.05.2019 21:00:00 13,5 7,3 10,5 2 1 9 5 SSW 1013,8 50 28 0,0
15.05.2019 20:00:00 14,9 7,4 14,2 8 5 22 12 ESE 1013,4 48 28 0,0
15.05.2019 19:00:00 15,9 6,9 16,5 16 9 27 14 ESE 1012,9 48 5 0,0
15.05.2019 18:00:00 16,2 5,5 17,2 18 10 27 14 ESE 1012,3 47 1 0,0
15.05.2019 17:00:00 16,9 6,4 17,7 7 4 31 17 S 1012,1 49 15 0,0
15.05.2019 16:00:00 19,1 4,8 24,3 13 7 27 15 WSW 1011,5 34 56 0,0
15.05.2019 15:00:00 18,2 4,0 23,1 10 5 21 11 WSW 1012,1 38 52 0,0
15.05.2019 14:00:00 16,2 2,9 24,1 5 3 16 9 NE 1012,8 43 38 0,0
15.05.2019 13:00:00 14,6 6,2 15,0 5 3 16 9 ENE 1013,4 20 40 0,0

tt = temperature
td = dewpoint
tt 5cm = temperature 5cm
ff = wind speed
fx = gusts
dd = wind direction
ppp = reduced air pressure
vv = visibility
sd = sunshine duration
rr = precipitation

Next stations